Terug naar catalogus

COSMOS 2071

ActiefMilitairLEO
NORAD 20556·PAYLOAD·🇷🇺 Russia

Gelanceerd Apr 6, 1990 vanaf Plesetsk Cosmodrome

Loading…

Volgende Passages (komende 24 uur)

TLE

VersSource: Space-Track

Epoch: Sep 14, 2026, 01:31 UTC

1 20556U 90029H   26257.06329164  .00000005  00000-0  13551-3 0  9994
2 20556  73.9801 123.2542 0003274 286.2650 226.8037 12.50944082664045

Volg COSMOS 2071 in realtime met AllMySat

Download on the App Store